This is the latest recevied weather packets stored in our database for station/object IR3AS. If no packets are shown the sender has not sent any weather packets the latest 10 day(s).
| Time | Temp. | Humidity | Pressure | Rain* | Wind** | Luminosity | Snow |
|---|---|---|---|---|---|---|---|
| 1787928641 | 17.22° C | 56% | 867.5 hPa | 0 mm | - | - | - |
| 1787928598 | 17.22° C | 56% | 867.5 hPa | 0 mm | - | - | - |
| 1787928297 | 17.78° C | 58% | 868.3 hPa | 0 mm | - | - | - |
| 1787928080 | 17.78° C | 57% | 868.5 hPa | 0 mm | - | - | - |
| 1787927997 | 17.78° C | 57% | 868.5 hPa | 0 mm | - | - | - |
| 1787927730 | 17.78° C | 54% | 867.7 hPa | 0 mm | - | - | - |
| 1787927699 | 17.78° C | 54% | 867.7 hPa | 0 mm | - | - | - |
| 1787927397 | 18.33° C | 55% | 867.9 hPa | 0 mm | - | - | - |
| 1787927097 | 18.89° C | 53% | 868.1 hPa | 0 mm | - | - | - |
| 1787926797 | 20° C | 51% | 868.4 hPa | 0 mm | - | - | - |
| 1787926531 | 20.56° C | 50% | 868.1 hPa | 0 mm | - | - | - |
| 1787926499 | 20.56° C | 50% | 868.1 hPa | 0 mm | - | - | - |
| 1787926197 | 21.11° C | 49% | 867.9 hPa | 0 mm | - | - | - |
| 1787925897 | 20.56° C | 49% | 868.3 hPa | 0 mm | - | - | - |
| 1787925597 | 21.11° C | 49% | 867.7 hPa | 0 mm | - | - | - |
| 1787925297 | 21.11° C | 49% | 867.9 hPa | 0 mm | - | - | - |
| 1787924997 | 20.56° C | 49% | 868.6 hPa | 0 mm | - | - | - |
| 1787924697 | 20.56° C | 46% | 868.6 hPa | 0 mm | - | - | - |
| 1787924398 | 21.11° C | 48% | 868.8 hPa | 0 mm | - | - | - |
| 1787924098 | 21.11° C | 48% | 868.6 hPa | 0 mm | - | - | - |
| 1787923798 | 21.11° C | 46% | 868.3 hPa | 0 mm | - | - | - |
| 1787923497 | 21.67° C | 46% | 868.6 hPa | 0 mm | - | - | - |
| 1787923197 | 21.11° C | 48% | 868.5 hPa | 0 mm | - | - | - |
| 1787922933 | 21.67° C | 45% | 868.2 hPa | 0 mm | - | - | - |
| 1787922899 | 21.67° C | 45% | 868.2 hPa | 0 mm | - | - | - |
* Rain latest hour (hover to see other rain measurements)
** Current wind speed in m/s (hover to see current wind gust speed)